Regional Weather Roundup
Issued by NWS

Home | Current Version | Previous Version | Graphics & Text | Print | Product List | Glossary On
Versions: 1 2 3 4 5 6 7 8 9 10 11 12 13 14 15 16 17 18 19 20 21 22 23 24 25 26 27 28 29 30 31 32 33 34 35 36 37 38 39 40 41 42 43 44 45 46 47 48 49 50
000
ASUS43 KLOT 010400
RWRIL

ILLINOIS REGIONAL WEATHER ROUNDUP
NATIONAL WEATHER SERVICE CHICAGO/ROMEOVILLE IL
1000 PM CST SAT FEB 28 2015

NOTE: "FAIR" INDICATES FEW OR NO CLOUDS BELOW 12,000 FEET WITH NO
SIGNIFICANT WEATHER AND/OR OBSTRUCTIONS TO VISIBILITY.

* THESE STATIONS ARE NOT UNDER NWS QUALITY CONTROL. THEY ALSO MAY NOT
  REPORT WEATHER SUCH AS PRECIPITATION OR FOG.

ILZ001-002-007-009-015-016-024-010500-
NORTHWEST ILLINOIS

CITY           SKY/WX    TMP DP  RH WIND       PRES   REMARKS
MOLINE         MOCLDY     7   4  87 E3        30.46F FOG
STERLING*      CLEAR      9   7  92 E3        30.47F
$$

ILZ003-004-008-010-011-017-018-010500-
NORTH CENTRAL ILLINOIS

CITY           SKY/WX    TMP DP  RH WIND       PRES   REMARKS
ROCKFORD       FLURRIES  14  10  84 SE3       30.49F
FREEPORT*      LGT SNOW  10   7  90 CALM      30.48F
DE KALB*       LGT SNOW  14  11  88 SE6       30.48S WCI   5
$$

ILZ005-006-012>014-019>023-010500-
NORTHEAST ILLINOIS

CITY           SKY/WX    TMP DP  RH WIND       PRES   REMARKS
CHICAGO-OHARE  LGT SNOW  17  14  88 S7        30.49F FOG     WCI   8
CHICAGO-MIDWAY LGT SNOW  20  15  81 SE7       30.50F WCI  11
AURORA         CLOUDY    16  10  77 SE6       30.49F HAZE    WCI   7
LANSING*       LGT SNOW  18  14  85 SE7       30.49F WCI   9
WAUKEGAN       CLOUDY    16  12  84 SW8       30.49F FOG     WCI   5
DUPAGE AIRPORT LGT SNOW  17  13  84 SE5       30.48F FOG     WCI  10
WHEELING       LGT SNOW  18  13  80 S6        30.51F WCI  10
NORTHERLY ISL    N/A     19  14  81 SE9         N/A  WCI   8
$$

LMZ740>746-010500-
SOUTHERN LAKE MICHIGAN

STATION/POSITION SKY/WX   TEMP    WIND        PRES    VSBY  WAVE
                          AIR SEA DIR/SP/G                  HT/PER
                          (F)     (DEG/KT/KT) (MB)    (MI)  (FT/S)
WAUKEGAN HARBOR            19     210/ 10/ 13   N/A
HARRISON CRIB              19     150/ 12/ 15   N/A
BURNHAM HARBOR             19     130/  6/  8   N/A
CALUMET HARBOR             18     150/  6/  8 1031.8F
MICHIGAN CITY              18     120/  5/  8   N/A
$$

ILZ025>027-034>036-040-047-049-050-058-095>099-010500-
WEST-CENTRAL ILLINOIS

CITY           SKY/WX    TMP DP  RH WIND       PRES   REMARKS
QUINCY         LGT SNOW  20  18  92 SE5       30.44S FOG     WCI  13
MACOMB*        LGT SNOW  20  19  94 SE7       30.47F WCI  11
$$

ILZ028>032-037-038-041>044-048-051>054-059>061-010500-
CENTRAL ILLINOIS

CITY           SKY/WX    TMP DP  RH WIND       PRES   REMARKS
BLOOMINGTON    LGT SNOW  19  18  93 SE6       30.46F FOG     WCI  11
DECATUR        LGT SNOW  22  19  89 E7        30.46F VSB 1   WCI  13
PEORIA         LGT SNOW  21  16  81 SE7       30.47F WCI  12
SPRINGFIELD    LGT SNOW  22  19  89 SE5       30.46F FOG     WCI  16
TAYLORVILLE    NOT AVBL
$$

ILZ033-039-045-046-055>057-062-063-010500-
EAST-CENTRAL ILLINOIS

CITY           SKY/WX    TMP DP  RH WIND       PRES   REMARKS
CHAMPAIGN      LGT SNOW  21  19  92 E9        30.46F VSB 3/4 WCI  11
MATTOON        LGT SNOW  22  20  92 SE7       30.44F VSB 1   WCI  13
$$

ILZ079-100>102-010500-
SOUTHWEST ILLINOIS

CITY           SKY/WX    TMP DP  RH WIND       PRES   REMARKS
BELLEVILLE     LGT SNOW  25  25  99 NE3       30.45S FOG
CAHOKIA*       LGT SNOW  26  24  92 E3        30.45F VSB 1
$$

ILZ064>066-069>071-074>076-080>082-084>086-088>090-092>094-010500-
SOUTH-CENTRAL ILLINOIS

CITY           SKY/WX    TMP DP  RH WIND       PRES   REMARKS
CARBONDALE     LGT SNOW  29  23  78 E6        30.46F WCI  23
MT. VERNON     CLOUDY    27  21  80 E3        30.46F
$$

ILZ067-068-072-073-078-083-087-091-010500-
SOUTHEAST ILLINOIS

CITY           SKY/WX    TMP DP  RH WIND       PRES   REMARKS
LAWRENCEVILLE  LGT SNOW  27  25  92 E7        30.48F VSB 3/4 WCI  19
$$

ABBREVIATIONS USED IN REMARKS
   TC - TEMPERATURE IN CELSIUS
  WCI - WIND CHILL INDEX
   HX - HEAT INDEX
  VSB - VISIBILITY
$$



USA.gov is the U.S. government's official web portal to all federal, state and local government web resources and services.